Flag for Germany Weather past 2 weeks in Melsungen, Hesse, Germany

Now
90 °F

Scattered clouds.


Feels Like: 96 °F
Forecast: 61 / 76 °F
Wind: 3 mph from North

Location: Fritzlar

Current Time: Jul 5, 2015 at 4:00:47 PM

Latest Report: Jul 5, 2015 at 3:00 PM


Visibility: 11 mi

Pressure: 29.93 "Hg

Humidity: 55%

Dew point: 71 °F

Location of MelsungenLocation

Historic Weather in Melsungen — Graph

°F

Melsungen temperature yesterday

Maximum temperature yesterday: 97 °F (at 4:00 PM)
Minimum temperature yesterday: 67 °F (at 6:00 AM)
Average temperature yesterday: 82 °F

Past Weeks' High & Low Weather Summary

 TemperatureHumidityPressure
High97 °F (Jul 4, 4:00 PM)97% (Jun 22, 4:00 AM)30.25 "Hg (Jun 22, 4:00 AM)
Low43 °F (Jun 25, 5:00 AM)30% (Jul 2, 5:00 PM)29.67 "Hg (Jun 23, 1:00 AM)
Average66 °F69%30.08 "Hg
* Reported Jun 20 3:00 PM — Jul 5 3:00 PM, Melsungen, Weather by CustomWeather, © 2015

Note: Actual official high and low records may vary slightly from our data, if they occured in-between our weather recording intervals... More about our weather records

Advertising

Melsungen weather history for previous 24 hours

 ConditionsComfort  
Time TempWeatherWind HumidityBarometerVisibility
3:00 PM
Sun, Jul 5
90 °FScattered clouds.3 mph55%29.93 "Hg11 mi
2:00 PM89 °FPartly sunny.6 mph56%29.95 "Hg12 mi
1:00 PM89 °FPartly sunny.3 mph51%29.98 "Hg11 mi
12:00 PM87 °FScattered clouds.2 mph55%29.99 "Hg9 mi
11:00 AM84 °FPartly sunny.2 mph63%30.01 "Hg9 mi
10:00 AM81 °FScattered clouds.1 mph67%30.03 "Hg9 mi
9:00 AM79 °FPassing clouds.N/A70%30.04 "Hg9 mi
8:00 AM75 °FPassing clouds.2 mph79%30.06 "Hg9 mi
7:00 AM72 °FPassing clouds.2 mph85%30.06 "Hg9 mi
6:00 AM71 °FPassing clouds.3 mph88%30.07 "Hg12 mi
5:00 AM71 °FPassing clouds.2 mph86%30.07 "Hg12 mi
4:00 AM71 °FPassing clouds.N/A90%30.08 "Hg9 mi
3:00 AM74 °FOvercast.2 mph79%30.09 "Hg12 mi
2:00 AM74 °FPassing clouds.2 mph78%30.09 "Hg12 mi
1:00 AM74 °FPassing clouds.1 mph82%30.09 "Hg12 mi
12:00 AM75 °FPassing clouds.No wind80%30.07 "Hg12 mi
11:00 PM
Sat, Jul 4
77 °FPassing clouds.3 mph77%30.07 "Hg12 mi
10:00 PM79 °FPassing clouds.N/A70%30.06 "Hg16 mi
9:00 PM85 °FThunderstorms. Scattered clouds.3 mph53%30.03 "Hg16 mi
8:00 PM88 °FThunderstorms. Partly sunny.N/A47%30.04 "Hg16 mi
7:00 PM83 °FThunderstorms. Partly sunny.10 mph50%30.05 "Hg19 mi
6:00 PM97 °FPartly sunny.5 mph33%30.01 "Hg19 mi
5:00 PM97 °FPartly sunny.5 mph31%30.02 "Hg19 mi
4:00 PM97 °FPartly sunny.6 mph31%30.03 "Hg19 mi
Weather by CustomWeather, © 2015

See weather overviewHow to use our weather pages